• In Portugal
  • List of Countries
  • For 7 days
  • Water Temperature
  • Satellite Maps
  • Weather Map
  • Weather Widgets
  • user-avatar
    Login

    Hourly Weather Darwin

    Today, 28 May, Monday

    Time Temperature Precipitation Wind Pressure Humidity
    00:00 +26°C° 0 mm 2 mps 759 mmHg 76%
    01:00 +25°C° 0 mm 2 mps 759 mmHg 77%
    02:00 +25°C° 0 mm 2 mps 759 mmHg 78%
    03:00 +25°C° 0 mm 2 mps 758 mmHg 80%
    04:00 +25°C° 0 mm 3 mps 759 mmHg 80%
    05:00 +24°C° 0 mm 3 mps 759 mmHg 80%
    06:00 +24°C° 0 mm 3 mps 759 mmHg 80%
    07:00 +26°C° 0 mm 3 mps 759 mmHg 72%
    08:00 +28°C° 0 mm 4 mps 759 mmHg 64%
    09:00 +30°C° 0 mm 4 mps 759 mmHg 56%
    10:00 +32°C° 0 mm 4 mps 759 mmHg 50%
    11:00 +34°C° 0 mm 4 mps 759 mmHg 43%
    12:00 +36°C° 0 mm 3 mps 758 mmHg 36%
    13:00 +36°C° 0 mm 3 mps 758 mmHg 35%
    14:00 +37°C° 0 mm 3 mps 757 mmHg 34%
    15:00 +37°C° 0 mm 3 mps 757 mmHg 33%
    16:00 +35°C° 0 mm 3 mps 757 mmHg 37%
    17:00 +34°C° 0 mm 3 mps 757 mmHg 42%
    18:00 +31°C° 0 mm 2 mps 757 mmHg 46%
    19:00 +30°C° 0 mm 2 mps 757 mmHg 51%
    20:00 +29°C° 0 mm 2 mps 758 mmHg 56%
    21:00 +28°C° 0 mm 2 mps 758 mmHg 61%
    22:00 +27°C° 0 mm 2 mps 758 mmHg 65%
    23:00 +27°C° 0 mm 1 mps 758 mmHg 69%

    Tomorrow, 29 May, Tuesday

    Time Temperature Precipitation Wind Pressure Humidity
    00:00 +26°C° 0 mm 1 mps 759 mmHg 73%
    01:00 +26°C° 0.1 mm 1 mps 759 mmHg 71%
    02:00 +25°C° 0.1 mm 2 mps 758 mmHg 69%
    03:00 +25°C° 0.1 mm 2 mps 758 mmHg 67%
    04:00 +25°C° 0 mm 2 mps 758 mmHg 67%
    05:00 +24°C° 0 mm 2 mps 759 mmHg 66%
    06:00 +24°C° 0 mm 3 mps 759 mmHg 65%
    07:00 +26°C° 0 mm 3 mps 759 mmHg 59%
    08:00 +27°C° 0 mm 4 mps 759 mmHg 53%
    09:00 +29°C° 0 mm 5 mps 759 mmHg 47%
    10:00 +32°C° 0 mm 5 mps 759 mmHg 41%
    11:00 +34°C° 0 mm 5 mps 759 mmHg 35%
    12:00 +36°C° 0 mm 5 mps 758 mmHg 29%
    13:00 +36°C° 0 mm 4 mps 758 mmHg 28%
    14:00 +36°C° 0 mm 4 mps 757 mmHg 28%
    15:00 +37°C° 0 mm 3 mps 756 mmHg 27%
    16:00 +35°C° 0 mm 3 mps 756 mmHg 31%
    17:00 +32°C° 0 mm 2 mps 757 mmHg 35%
    18:00 +31°C° 0 mm 2 mps 757 mmHg 38%
    19:00 +30°C° 0 mm 2 mps 757 mmHg 41%
    20:00 +29°C° 0 mm 2 mps 758 mmHg 43%
    21:00 +28°C° 0 mm 2 mps 759 mmHg 45%
    22:00 +27°C° 0 mm 2 mps 759 mmHg 48%
    23:00 +27°C° 0 mm 3 mps 759 mmHg 52%

    Day after tomorrow, 30 May, Wednesday

    Time Temperature Precipitation Wind Pressure Humidity
    00:00 +26°C° 0 mm 3 mps 759 mmHg 55%
    01:00 +26°C° 0 mm 3 mps 759 mmHg 57%
    02:00 +25°C° 0 mm 3 mps 758 mmHg 59%
    03:00 +25°C° 0 mm 3 mps 758 mmHg 61%
    04:00 +25°C° 0 mm 4 mps 758 mmHg 62%
    05:00 +23°C° 0 mm 5 mps 759 mmHg 63%
    06:00 +23°C° 0 mm 5 mps 759 mmHg 65%
    07:00 +24°C° 0 mm 6 mps 759 mmHg 60%
    08:00 +27°C° 0 mm 7 mps 760 mmHg 55%
    09:00 +29°C° 0 mm 7 mps 760 mmHg 49%
    10:00 +32°C° 0 mm 7 mps 760 mmHg 44%
    11:00 +33°C° 0 mm 7 mps 759 mmHg 39%
    12:00 +35°C° 0 mm 6 mps 759 mmHg 34%
    13:00 +35°C° 0 mm 6 mps 758 mmHg 34%
    14:00 +36°C° 0 mm 5 mps 757 mmHg 34%
    15:00 +36°C° 0 mm 5 mps 757 mmHg 34%
    16:00 +35°C° 0 mm 4 mps 757 mmHg 38%
    17:00 +33°C° 0 mm 4 mps 757 mmHg 42%
    18:00 +31°C° 0 mm 3 mps 757 mmHg 45%
    19:00 +30°C° 0 mm 3 mps 758 mmHg 48%
    20:00 +29°C° 0 mm 3 mps 758 mmHg 50%
    21:00 +29°C° 0 mm 3 mps 759 mmHg 52%
    22:00 +28°C° 0 mm 4 mps 759 mmHg 53%
    23:00 +28°C° 0 mm 6 mps 759 mmHg 55%

    31 May, Thursday

    Time Temperature Precipitation Wind Pressure Humidity
    00:00 +28°C° 0 mm 7 mps 760 mmHg 57%
    01:00 +27°C° 0 mm 7 mps 759 mmHg 59%
    02:00 +26°C° 0 mm 7 mps 759 mmHg 62%
    03:00 +26°C° 0 mm 7 mps 759 mmHg 65%
    04:00 +24°C° 0 mm 7 mps 759 mmHg 64%
    05:00 +24°C° 0 mm 7 mps 759 mmHg 64%
    06:00 +23°C° 0 mm 6 mps 759 mmHg 63%
    07:00 +26°C° 0 mm 7 mps 760 mmHg 56%
    08:00 +27°C° 0 mm 7 mps 760 mmHg 49%
    09:00 +29°C° 0 mm 7 mps 761 mmHg 42%
    10:00 +30°C° 0 mm 7 mps 760 mmHg 40%
    11:00 +33°C° 0 mm 6 mps 760 mmHg 38%
    12:00 +35°C° 0 mm 6 mps 759 mmHg 36%
    13:00 +35°C° 0 mm 5 mps 758 mmHg 36%
    14:00 +36°C° 0 mm 5 mps 758 mmHg 35%
    15:00 +36°C° 0 mm 4 mps 757 mmHg 35%
    16:00 +35°C° 0 mm 4 mps 757 mmHg 39%
    17:00 +33°C° 0 mm 3 mps 757 mmHg 44%
    18:00 +31°C° 0 mm 3 mps 757 mmHg 48%
    19:00 +30°C° 0 mm 3 mps 758 mmHg 52%
    20:00 +29°C° 0 mm 3 mps 758 mmHg 55%
    21:00 +28°C° 0 mm 2 mps 759 mmHg 58%
    22:00 +28°C° 0.2 mm 3 mps 759 mmHg 63%
    23:00 +27°C° 0.2 mm 4 mps 759 mmHg 67%

    1 June, Friday

    Time Temperature Precipitation Wind Pressure Humidity
    00:00 +27°C° 0.2 mm 5 mps 759 mmHg 72%
    01:00 +26°C° 0.2 mm 5 mps 759 mmHg 74%
    02:00 +25°C° 0.2 mm 5 mps 759 mmHg 77%
    03:00 +23°C° 0.2 mm 6 mps 759 mmHg 80%
    04:00 +23°C° 0 mm 6 mps 759 mmHg 79%
    05:00 +23°C° 0 mm 6 mps 759 mmHg 78%
    06:00 +23°C° 0 mm 6 mps 759 mmHg 77%
    07:00 +24°C° 0 mm 6 mps 760 mmHg 70%
    08:00 +26°C° 0 mm 6 mps 760 mmHg 63%
    09:00 +28°C° 0 mm 6 mps 760 mmHg 56%
    10:00 +30°C° 0 mm 6 mps 760 mmHg 50%
    11:00 +33°C° 0 mm 6 mps 759 mmHg 43%
    12:00 +35°C° 0 mm 5 mps 759 mmHg 37%
    13:00 +35°C° 0 mm 5 mps 758 mmHg 36%
    14:00 +36°C° 0 mm 4 mps 758 mmHg 36%
    15:00 +36°C° 0 mm 4 mps 757 mmHg 35%
    16:00 +35°C° 0 mm 4 mps 757 mmHg 40%
    17:00 +33°C° 0 mm 3 mps 757 mmHg 44%
    18:00 +31°C° 0 mm 3 mps 758 mmHg 49%
    19:00 +30°C° 0 mm 2 mps 758 mmHg 51%
    20:00 +30°C° 0 mm 2 mps 759 mmHg 54%
    21:00 +29°C° 0 mm 1 mps 759 mmHg 57%
    22:00 +29°C° 0.1 mm 2 mps 759 mmHg 56%
    23:00 +29°C° 0.1 mm 2 mps 759 mmHg 55%

    2 June, Saturday

    Time Temperature Precipitation Wind Pressure Humidity
    00:00 +29°C° 0.1 mm 2 mps 759 mmHg 54%
    01:00 +28°C° 0.2 mm 3 mps 759 mmHg 60%
    02:00 +27°C° 0.2 mm 4 mps 759 mmHg 65%
    03:00 +26°C° 0.2 mm 6 mps 759 mmHg 71%
    04:00 +24°C° 0 mm 6 mps 759 mmHg 74%
    05:00 +24°C° 0 mm 6 mps 759 mmHg 77%
    06:00 +23°C° 0 mm 6 mps 760 mmHg 79%
    07:00 +24°C° 0 mm 6 mps 760 mmHg 71%
    08:00 +27°C° 0 mm 6 mps 760 mmHg 63%
    09:00 +28°C° 0 mm 7 mps 760 mmHg 55%
    10:00 +30°C° 0 mm 6 mps 760 mmHg 48%
    11:00 +33°C° 0 mm 5 mps 759 mmHg 41%
    12:00 +35°C° 0 mm 5 mps 759 mmHg 34%
    13:00 +35°C° 0 mm 4 mps 758 mmHg 32%
    14:00 +36°C° 0 mm 4 mps 758 mmHg 31%
    15:00 +36°C° 0 mm 3 mps 757 mmHg 30%
    16:00 +35°C° 0 mm 3 mps 757 mmHg 34%
    17:00 +33°C° 0 mm 3 mps 757 mmHg 38%
    18:00 +30°C° 0 mm 2 mps 758 mmHg 42%
    19:00 +29°C° 0 mm 2 mps 758 mmHg 41%
    20:00 +28°C° 0 mm 2 mps 759 mmHg 40%
    21:00 +28°C° 0 mm 2 mps 759 mmHg 40%
    22:00 +27°C° 0 mm 3 mps 759 mmHg 35%
    23:00 +27°C° 0 mm 3 mps 759 mmHg 31%
    Show more